Weather History for Chariton, IA

Change the Weather History Date:

Tuesday, April 1, 2014

  Actual Average Record
Temperature  
Mean Temperature 37 °F -  
Max Temperature 50 °F 57 °F 84 °F (2012)
Min Temperature 24 °F 33 °F 22 °F (1954)
Degree Days  
Heating Degree Days 28    
Moisture  
Dew Point 20 °F    
Average Humidity 52    
Maximum Humidity 69    
Minimum Humidity 35    
Precipitation  
Precipitation 0.00 in - - ()
Sea Level Pressure  
Sea Level Pressure 30.00 in    
Wind  
Wind Speed 17 mph (NW)    
Max Wind Speed 30 mph    
Max Gust Speed 39 mph    
Visibility 10 miles    
Events      
Averages and records for this station are not official NWS values.
T = Trace of Precipitation, MM = Missing Value Source: NWS Daily Summary

Daily Weather History Graph

Daily Weather History Graph

Search for Another Location

Airport:

Trip Planner

Search our weather history database for the weather conditions in past years. The results will help you decide how hot, cold, wet, or windy it might be!

Date:

Astronomy

Apr. 01, 2014 Rise Set
Actual Time 6:56 AM CDT 7:38 PM CDT
Civil Twilight 6:29 AM CDT 8:06 PM CDT
Nautical Twilight 5:56 AM CDT 8:39 PM CDT
Astronomical Twilight 5:22 AM CDT 9:13 PM CDT
Moon 7:58 AM CDT (4/1) 10:02 PM CDT (4/1)
Length of Visible Light 13h 37m
Length of Day
12h 41m
Waxing Crescent, 5% of the Moon is Illuminated
Apr 1
Waxing Crescent
Apr 7
First Quarter
Apr 15
Full
Apr 22
Last Quarter
Apr 29
New

Hourly Weather History & Observations

Time (CDT) Temp. Windchill Dew Point Humidity Pressure Visibility Wind Dir Wind Speed Gust Speed Precip Events Conditions
12:15 AM 32.0 °F 18.4 °F 17.6 °F 55% 29.83 in 10.0 mi West 26.5 mph 34.5 mph N/A   Overcast
12:35 AM 30.2 °F 15.2 °F 15.8 °F 55% 29.85 in 10.0 mi West 29.9 mph 39.1 mph N/A   Overcast
1:15 AM 30.2 °F 17.1 °F 15.8 °F 55% 29.87 in 10.0 mi West 21.9 mph 28.8 mph N/A   Overcast
1:35 AM 28.4 °F 14.1 °F 15.8 °F 59% 29.87 in 10.0 mi West 24.2 mph 38.0 mph N/A   Overcast
1:55 AM 28.4 °F 15.1 °F 15.8 °F 59% 29.88 in 10.0 mi West 20.7 mph 35.7 mph N/A   Overcast
2:15 AM 28.4 °F 14.1 °F 15.8 °F 59% 29.88 in 10.0 mi West 24.2 mph 29.9 mph N/A   Overcast
2:35 AM 28.4 °F 13.5 °F 15.8 °F 59% 29.88 in 10.0 mi West 26.5 mph 33.4 mph N/A   Overcast
2:55 AM 28.4 °F 14.1 °F 15.8 °F 59% 29.88 in 10.0 mi West 24.2 mph 38.0 mph N/A   Overcast
3:15 AM 28.4 °F 14.7 °F 15.8 °F 59% 29.89 in 10.0 mi West 21.9 mph 31.1 mph N/A   Overcast
3:35 AM 28.4 °F 14.4 °F 15.8 °F 59% 29.88 in 10.0 mi West 23.0 mph 32.2 mph N/A   Overcast
3:55 AM 28.4 °F 14.4 °F 15.8 °F 59% 29.89 in 10.0 mi West 23.0 mph 32.2 mph N/A   Overcast
4:15 AM 28.4 °F 16.2 °F 17.6 °F 64% 29.90 in 10.0 mi West 17.3 mph 26.5 mph N/A   Overcast
4:35 AM 28.4 °F 14.7 °F 17.6 °F 64% 29.92 in 10.0 mi West 21.9 mph 32.2 mph N/A   Overcast
4:55 AM 28.4 °F 15.4 °F 17.6 °F 64% 29.93 in 10.0 mi West 19.6 mph 29.9 mph N/A   Overcast
5:15 AM 28.4 °F 13.8 °F 17.6 °F 64% 29.93 in 10.0 mi West 25.3 mph 32.2 mph N/A   Overcast
5:35 AM 26.6 °F 15.2 °F 15.8 °F 64% 29.93 in 10.0 mi WNW 13.8 mph 29.9 mph N/A   Overcast
5:55 AM 26.6 °F 13.1 °F 15.8 °F 64% 29.94 in 10.0 mi WNW 19.6 mph 27.6 mph N/A   Mostly Cloudy
6:15 AM 24.8 °F 11.9 °F 15.8 °F 69% 29.96 in 10.0 mi West 16.1 mph 28.8 mph N/A   Mostly Cloudy
6:35 AM 24.8 °F 11.9 °F 15.8 °F 69% 29.97 in 10.0 mi West 16.1 mph 26.5 mph N/A   Mostly Cloudy
6:55 AM 24.8 °F 11.5 °F 15.8 °F 69% 29.98 in 10.0 mi West 17.3 mph 26.5 mph N/A   Partly Cloudy
7:15 AM 24.8 °F 10.0 °F 15.8 °F 69% 29.99 in 10.0 mi WNW 21.9 mph 28.8 mph N/A   Clear
7:35 AM 24.8 °F 10.3 °F 14.0 °F 64% 29.99 in 10.0 mi WNW 20.7 mph 28.8 mph N/A   Clear
7:55 AM 24.8 °F 13.4 °F 14.0 °F 64% 30.00 in 10.0 mi WNW 12.7 mph 24.2 mph N/A   Clear
8:15 AM 26.6 °F 14.7 °F 15.8 °F 64% 30.00 in 10.0 mi WNW 15.0 mph 20.7 mph N/A   Clear
8:35 AM 26.6 °F 13.8 °F 15.8 °F 64% 30.00 in 10.0 mi WNW 17.3 mph - N/A   Clear
8:55 AM 28.4 °F 15.4 °F 15.8 °F 59% 30.01 in 10.0 mi NW 19.6 mph 25.3 mph N/A   Clear
9:15 AM 30.2 °F 18.5 °F 15.8 °F 55% 30.02 in 10.0 mi WNW 17.3 mph - N/A   Clear
9:35 AM 30.2 °F 18.5 °F 15.8 °F 55% 30.03 in 10.0 mi WNW 17.3 mph 24.2 mph N/A   Clear
9:55 AM 32.0 °F 20.8 °F 17.6 °F 55% 30.03 in 10.0 mi WNW 17.3 mph 23.0 mph N/A   Clear
10:15 AM 33.8 °F 23.5 °F 17.6 °F 52% 30.04 in 10.0 mi WNW 16.1 mph 24.2 mph N/A   Clear
10:35 AM 35.6 °F 26.6 °F 17.6 °F 48% 30.04 in 10.0 mi NW 13.8 mph 23.0 mph N/A   Clear
10:55 AM 37.4 °F 28.9 °F 19.4 °F 48% 30.04 in 10.0 mi NW 13.8 mph - N/A   Clear
11:10 AM 37.4 °F 28.5 °F 19.4 °F 48% 30.05 in 10.0 mi WNW 15.0 mph - N/A   Clear
11:35 AM 39.2 °F 30.8 °F 19.4 °F 45% 30.06 in 10.0 mi WNW 15.0 mph - N/A   Clear
11:55 AM 41.0 °F 33.5 °F 21.2 °F 45% 30.06 in 10.0 mi West 13.8 mph - N/A   Clear
12:15 PM 42.8 °F 38.0 °F 21.2 °F 42% 30.04 in 10.0 mi NW 8.1 mph 18.4 mph N/A   Clear
12:35 PM 42.8 °F 35.4 °F 21.2 °F 42% 30.04 in 10.0 mi NW 15.0 mph - N/A   Clear
12:55 PM 42.8 °F 39.3 °F 21.2 °F 42% 30.04 in 10.0 mi NW 5.8 mph 13.8 mph N/A   Clear
1:15 PM 44.6 °F 40.2 °F 21.2 °F 39% 30.06 in 10.0 mi WNW 8.1 mph - N/A   Clear
1:35 PM 44.6 °F 41.4 °F 21.2 °F 39% 30.06 in 10.0 mi Variable 5.8 mph - N/A   Clear
1:55 PM 46.4 °F 42.9 °F 21.2 °F 37% 30.06 in 10.0 mi WSW 6.9 mph 15.0 mph N/A   Clear
2:15 PM 46.4 °F 41.1 °F 23.0 °F 40% 30.05 in 10.0 mi West 11.5 mph - N/A   Clear
2:35 PM 46.4 °F 41.9 °F 23.0 °F 40% 30.05 in 10.0 mi West 9.2 mph - N/A   Clear
2:55 PM 48.2 °F - 23.0 °F 37% 30.04 in 10.0 mi NW 5.8 mph - N/A   Clear
3:15 PM 48.2 °F - 23.0 °F 37% 30.04 in 10.0 mi West 9.2 mph 15.0 mph N/A   Clear
3:35 PM 48.2 °F - 23.0 °F 37% 30.03 in 10.0 mi Variable 4.6 mph - N/A   Clear
3:55 PM 48.2 °F - 23.0 °F 37% 30.04 in 10.0 mi West 8.1 mph - N/A   Clear
4:15 PM 48.2 °F - 23.0 °F 37% 30.03 in 10.0 mi WNW 8.1 mph - N/A   Clear
4:35 PM 50.0 °F - 23.0 °F 35% 30.02 in 10.0 mi North 8.1 mph - N/A   Clear
4:55 PM 48.2 °F - 23.0 °F 37% 30.02 in 10.0 mi NNW 8.1 mph - N/A   Clear
5:15 PM 48.2 °F - 23.0 °F 37% 30.02 in 10.0 mi North 9.2 mph - N/A   Clear
5:35 PM 48.2 °F - 23.0 °F 37% 30.03 in 10.0 mi NW 8.1 mph 13.8 mph N/A   Partly Cloudy
5:55 PM 48.2 °F - 23.0 °F 37% 30.04 in 10.0 mi NW 5.8 mph - N/A   Mostly Cloudy
6:15 PM 48.2 °F - 23.0 °F 37% 30.04 in 10.0 mi North 4.6 mph - N/A   Overcast
6:35 PM 48.2 °F - 23.0 °F 37% 30.05 in 10.0 mi NNE 3.5 mph - N/A   Scattered Clouds
6:55 PM 46.4 °F 44.3 °F 24.8 °F 43% 30.05 in 10.0 mi NNE 4.6 mph - N/A   Scattered Clouds
7:15 PM 46.4 °F 43.5 °F 26.6 °F 46% 30.05 in 10.0 mi NNE 5.8 mph - N/A   Scattered Clouds
7:35 PM 44.6 °F 40.7 °F 24.8 °F 46% 30.04 in 10.0 mi NNE 6.9 mph - N/A   Mostly Cloudy
7:55 PM 44.6 °F 41.4 °F 26.6 °F 49% 30.05 in 10.0 mi NE 5.8 mph - N/A   Overcast
8:15 PM 44.6 °F 41.4 °F 26.6 °F 49% 30.06 in 10.0 mi NE 5.8 mph - N/A   Overcast
8:35 PM 42.8 °F 38.6 °F 24.8 °F 49% 30.07 in 10.0 mi NE 6.9 mph - N/A   Overcast
8:55 PM 42.8 °F 39.3 °F 26.6 °F 53% 30.08 in 10.0 mi NE 5.8 mph - N/A   Overcast
9:15 PM 42.8 °F 38.0 °F 26.6 °F 53% 30.08 in 10.0 mi NNE 8.1 mph - N/A   Overcast
9:35 PM 42.8 °F 38.0 °F 26.6 °F 53% 30.08 in 10.0 mi NNE 8.1 mph - N/A   Overcast
9:55 PM 41.0 °F 34.7 °F 24.8 °F 53% 30.08 in 10.0 mi NNE 10.4 mph - N/A   Overcast
10:15 PM 39.2 °F 33.6 °F 24.8 °F 56% 30.07 in 10.0 mi NE 8.1 mph - N/A   Overcast
10:35 PM 37.4 °F 31.4 °F 24.8 °F 60% 30.07 in 10.0 mi NE 8.1 mph - N/A   Overcast
10:55 PM 37.4 °F 31.4 °F 24.8 °F 60% 30.07 in 10.0 mi NNE 8.1 mph - N/A   Overcast
11:15 PM 39.2 °F 34.2 °F 24.8 °F 56% 30.07 in 10.0 mi NE 6.9 mph - N/A   Overcast
11:35 PM 39.2 °F 35.9 °F 24.8 °F 56% 30.07 in 10.0 mi NE 4.6 mph - N/A   Overcast
11:55 PM 39.2 °F 35.9 °F 24.8 °F 56% 30.08 in 10.0 mi NE 4.6 mph - N/A   Overcast